Location: San Martino di Castrozza
(46.2667°N, 11.8000°E)
Time: 04:26:47
(UTC+00:00)

Cosmos 1953 - Pass Details

Date: 05 August 2021
Orbit: 538 x 556 km, 82.5° (Epoch: 26 September)

Event Time Altitude Azimuth Distance (km) Brightness Sun altitude
Rises 02:06:13 0° 144° (SE) 2,718 5.7 -16.4°
Reaches altitude 10° 02:09:05 10° 122° (ESE) 1,827 5.1 -16.1°
Maximum altitude 02:11:29 16° 85° (E) 1,507 5.2 -15.8°
Drops below altitude 10° 02:13:53 10° 49° (NE) 1,830 6.4 -15.5°
Sets 02:16:45 0° 27° (NNE) 2,725 7.4 -15.2°
